SWA1242 KBWI-KRIC

Flight info

Callsign SWA1242
Flight time 0h 29m
Altitude 12000
Route CONLE5 COLIN
Aircraft B737/M-SADE2E3GIJ4RWZ/LB1D1

Departure

Time 2026-04-22 18:00
Airport Baltimore/Washington International Thurgood Marshall Airport (KBWI)

Arrival

Time 2026-04-22 18:29
Airport Richmond International Airport (KRIC)
Time Latitude Longitude Altitude Speed Heading
2026-04-22 17:35 39.18068 -76.67372 154 ft 0 kts 55°
2026-04-22 17:52 39.18066 -76.67377 155 ft 2 kts 55°
2026-04-22 17:52 39.18056 -76.67394 154 ft 2 kts 55°
2026-04-22 17:52 39.18047 -76.67411 154 ft 2 kts 55°
2026-04-22 17:52 39.18038 -76.67428 153 ft 2 kts 67°
2026-04-22 17:53 39.18037 -76.67450 152 ft 3 kts 115°
2026-04-22 17:53 39.18049 -76.67467 152 ft 3 kts 143°
2026-04-22 17:53 39.18058 -76.67476 152 ft 0 kts 143°
2026-04-22 17:55 39.18054 -76.67472 152 ft 2 kts 143°
2026-04-22 17:55 39.18034 -76.67454 152 ft 6 kts 153°
2026-04-22 17:55 39.17980 -76.67489 148 ft 13 kts 205°
2026-04-22 17:56 39.17889 -76.67426 148 ft 17 kts 144°
2026-04-22 17:56 39.17784 -76.67330 148 ft 20 kts 143°
2026-04-22 17:56 39.17665 -76.67217 150 ft 22 kts 144°
2026-04-22 17:56 39.17578 -76.67138 151 ft 24 kts 144°
2026-04-22 17:57 39.17469 -76.66917 153 ft 21 kts 97°
2026-04-22 17:57 39.17458 -76.66730 153 ft 21 kts 94°
2026-04-22 17:57 39.17448 -76.66538 153 ft 22 kts 89°
2026-04-22 17:57 39.17531 -76.66388 151 ft 22 kts 96°
2026-04-22 17:58 39.17473 -76.66271 148 ft 24 kts 122°
2026-04-22 17:58 39.17447 -76.66060 149 ft 25 kts 94°
2026-04-22 17:58 39.17435 -76.65840 143 ft 21 kts 94°
2026-04-22 17:58 39.17426 -76.65675 140 ft 17 kts 94°
2026-04-22 17:59 39.17419 -76.65572 141 ft 10 kts 99°
2026-04-22 17:59 39.17354 -76.65523 140 ft 15 kts 180°
2026-04-22 17:59 39.17283 -76.65615 140 ft 27 kts 275°
2026-04-22 17:59 39.17319 -76.66225 146 ft 109 kts 274°
2026-04-22 18:00 39.17387 -76.67486 282 ft 162 kts 274°
2026-04-22 18:00 39.17456 -76.68942 1188 ft 162 kts 272°
2026-04-22 18:00 39.17538 -76.70427 2058 ft 179 kts 273°
2026-04-22 18:00 39.17640 -76.72100 2918 ft 189 kts 275°
2026-04-22 18:01 39.17568 -76.73816 3875 ft 203 kts 251°
2026-04-22 18:01 39.16592 -76.75306 4549 ft 237 kts 214°
2026-04-22 18:01 39.14937 -76.75787 5602 ft 258 kts 179°
2026-04-22 18:01 39.13204 -76.74981 6707 ft 275 kts 148°
2026-04-22 18:02 39.11683 -76.73407 7521 ft 294 kts 142°
2026-04-22 18:02 39.10066 -76.71700 8474 ft 303 kts 142°
2026-04-22 18:02 39.08420 -76.69976 9630 ft 306 kts 142°
2026-04-22 18:02 39.06753 -76.68252 10699 ft 310 kts 143°
2026-04-22 18:03 39.05002 -76.66460 11251 ft 335 kts 143°
2026-04-22 18:03 39.03151 -76.64450 11488 ft 356 kts 135°
2026-04-22 18:03 39.01503 -76.62046 11743 ft 360 kts 130°
2026-04-22 18:03 38.99926 -76.59519 11988 ft 362 kts 129°
2026-04-22 18:04 38.98333 -76.57011 12018 ft 361 kts 130°
2026-04-22 18:04 38.96737 -76.54577 12021 ft 358 kts 131°
2026-04-22 18:04 38.95113 -76.52154 12027 ft 358 kts 134°
2026-04-22 18:04 38.93138 -76.50250 12037 ft 353 kts 158°
2026-04-22 18:05 38.90803 -76.49436 12040 ft 346 kts 178°
2026-04-22 18:05 38.88434 -76.49613 12033 ft 339 kts 195°
2026-04-22 18:05 38.86132 -76.50249 12016 ft 338 kts 197°
2026-04-22 18:05 38.83864 -76.51004 11998 ft 336 kts 203°
2026-04-22 18:06 38.81681 -76.52046 12013 ft 334 kts 206°
2026-04-22 18:06 38.79523 -76.53176 12002 ft 335 kts 207°
2026-04-22 18:06 38.77362 -76.54305 12013 ft 336 kts 207°
2026-04-22 18:06 38.75190 -76.55411 12006 ft 336 kts 206°
2026-04-22 18:07 38.73028 -76.56486 12010 ft 337 kts 206°
2026-04-22 18:07 38.70838 -76.57563 12019 ft 337 kts 206°
2026-04-22 18:07 38.68647 -76.58634 12020 ft 338 kts 205°
2026-04-22 18:07 38.66431 -76.59674 12028 ft 338 kts 205°
2026-04-22 18:08 38.64213 -76.60695 12021 ft 339 kts 204°
2026-04-22 18:08 38.61995 -76.61713 12013 ft 339 kts 204°
2026-04-22 18:08 38.59778 -76.62731 11999 ft 338 kts 204°
2026-04-22 18:08 38.57572 -76.63745 11983 ft 336 kts 205°
2026-04-22 18:09 38.55383 -76.64753 12010 ft 334 kts 205°
2026-04-22 18:09 38.53199 -76.65761 12009 ft 333 kts 205°
2026-04-22 18:09 38.51016 -76.66768 12014 ft 333 kts 205°
2026-04-22 18:09 38.48836 -76.67774 12016 ft 333 kts 205°
2026-04-22 18:10 38.46655 -76.68779 12017 ft 334 kts 205°
2026-04-22 18:10 38.44472 -76.69784 12018 ft 334 kts 205°
2026-04-22 18:10 38.42278 -76.70790 12020 ft 335 kts 204°
2026-04-22 18:10 38.39957 -76.71292 12009 ft 346 kts 182°
2026-04-22 18:11 38.37546 -76.70988 12027 ft 349 kts 177°
2026-04-22 18:11 38.35164 -76.70577 12013 ft 350 kts 177°
2026-04-22 18:11 38.32751 -76.70144 12014 ft 350 kts 177°
2026-04-22 18:11 38.30340 -76.69720 12013 ft 349 kts 177°
2026-04-22 18:12 38.27929 -76.69309 12009 ft 349 kts 177°
2026-04-22 18:12 38.25522 -76.68910 12013 ft 349 kts 178°
2026-04-22 18:12 38.23926 -76.68648 12019 ft 349 kts 178°
2026-04-22 18:12 38.20706 -76.68126 12018 ft 349 kts 178°
2026-04-22 18:13 38.18295 -76.67737 12006 ft 349 kts 178°
2026-04-22 18:13 38.15890 -76.67349 12012 ft 348 kts 178°
2026-04-22 18:13 38.13488 -76.66962 12023 ft 347 kts 178°
2026-04-22 18:13 38.11093 -76.66629 12005 ft 343 kts 185°
2026-04-22 18:14 38.08839 -76.67099 12025 ft 327 kts 206°
2026-04-22 18:14 38.06749 -76.68265 12026 ft 322 kts 212°
2026-04-22 18:14 38.04763 -76.69508 12018 ft 321 kts 213°
2026-04-22 18:14 38.02763 -76.70788 12016 ft 321 kts 213°
2026-04-22 18:15 38.00762 -76.72069 12018 ft 322 kts 213°
2026-04-22 18:15 37.98756 -76.73343 12019 ft 322 kts 213°
2026-04-22 18:15 37.96746 -76.74611 12025 ft 322 kts 213°
2026-04-22 18:15 37.94737 -76.75870 12020 ft 322 kts 213°
2026-04-22 18:16 37.92723 -76.77127 12015 ft 323 kts 213°
2026-04-22 18:16 37.90707 -76.78382 12017 ft 323 kts 212°
2026-04-22 18:16 37.88694 -76.79631 12022 ft 322 kts 212°
2026-04-22 18:16 37.86686 -76.80875 12025 ft 320 kts 212°
2026-04-22 18:17 37.84711 -76.82098 12017 ft 319 kts 212°
2026-04-22 18:17 37.82712 -76.83335 12014 ft 319 kts 212°
2026-04-22 18:17 37.80722 -76.84566 12031 ft 318 kts 213°
2026-04-22 18:17 37.78727 -76.85799 12014 ft 318 kts 213°
2026-04-22 18:18 37.76731 -76.87031 11993 ft 319 kts 212°
2026-04-22 18:18 37.74714 -76.88279 11591 ft 325 kts 212°
2026-04-22 18:18 37.72692 -76.89528 11118 ft 327 kts 212°
2026-04-22 18:18 37.70658 -76.90779 10606 ft 323 kts 212°
2026-04-22 18:19 37.68655 -76.92009 10295 ft 313 kts 212°
2026-04-22 18:19 37.66741 -76.93179 10154 ft 298 kts 212°
2026-04-22 18:19 37.64916 -76.94296 10021 ft 285 kts 212°
2026-04-22 18:19 37.63149 -76.95382 9620 ft 281 kts 212°
2026-04-22 18:20 37.61423 -76.96445 9267 ft 277 kts 212°
2026-04-22 18:20 37.59698 -76.97507 8916 ft 276 kts 212°
2026-04-22 18:20 37.57968 -76.98574 8515 ft 279 kts 212°
2026-04-22 18:20 37.56228 -76.99645 8128 ft 277 kts 211°
2026-04-22 18:21 37.54498 -77.00706 7727 ft 274 kts 211°
2026-04-22 18:21 37.52793 -77.01751 7336 ft 271 kts 211°
2026-04-22 18:21 37.51101 -77.02788 6974 ft 269 kts 211°
2026-04-22 18:21 37.49417 -77.03821 6600 ft 269 kts 211°
2026-04-22 18:22 37.47741 -77.04848 6176 ft 267 kts 210°
2026-04-22 18:22 37.46105 -77.05848 5753 ft 262 kts 210°
2026-04-22 18:22 37.44485 -77.06838 5389 ft 257 kts 210°
2026-04-22 18:22 37.42883 -77.07817 5048 ft 255 kts 210°
2026-04-22 18:23 37.41295 -77.08788 4683 ft 253 kts 210°
2026-04-22 18:23 37.39712 -77.09759 4356 ft 254 kts 210°
2026-04-22 18:23 37.38123 -77.10734 4087 ft 252 kts 210°
2026-04-22 18:24 37.35054 -77.12579 3780 ft 234 kts 209°
2026-04-22 18:24 37.33776 -77.13691 3710 ft 216 kts 235°
2026-04-22 18:24 37.33483 -77.17045 3592 ft 195 kts 290°
2026-04-22 18:25 37.34256 -77.18403 3451 ft 197 kts 320°
2026-04-22 18:25 37.35417 -77.19284 3323 ft 190 kts 326°
2026-04-22 18:25 37.36516 -77.20119 3209 ft 178 kts 322°
2026-04-22 18:26 37.38523 -77.21795 2759 ft 168 kts 322°
2026-04-22 18:26 37.39505 -77.22586 2492 ft 166 kts 322°
2026-04-22 18:26 37.40467 -77.23364 2228 ft 163 kts 323°
2026-04-22 18:26 37.41405 -77.24119 2055 ft 159 kts 324°
2026-04-22 18:27 37.42335 -77.24873 1822 ft 158 kts 322°
2026-04-22 18:27 37.43247 -77.25609 1601 ft 152 kts 322°
2026-04-22 18:27 37.44089 -77.26276 1433 ft 135 kts 322°
2026-04-22 18:27 37.44848 -77.26874 1280 ft 126 kts 321°
2026-04-22 18:28 37.45594 -77.27491 1092 ft 130 kts 320°
2026-04-22 18:28 37.46369 -77.28139 939 ft 137 kts 321°
2026-04-22 18:28 37.47167 -77.28762 793 ft 133 kts 323°
2026-04-22 18:28 37.47945 -77.29376 603 ft 132 kts 322°
2026-04-22 18:29 37.48730 -77.30011 414 ft 137 kts 324°
2026-04-22 18:29 37.49536 -77.30651 217 ft 137 kts 322°
2026-04-22 18:29 37.50288 -77.31257 166 ft 105 kts 328°
2026-04-22 18:29 37.50684 -77.31574 171 ft 40 kts 328°
2026-04-22 18:30 37.50844 -77.31785 168 ft 31 kts 297°
2026-04-22 18:30 37.50957 -77.32265 169 ft 27 kts 277°
2026-04-22 18:30 37.50978 -77.32492 169 ft 25 kts 276°
2026-04-22 18:31 37.50980 -77.32704 170 ft 23 kts 258°
2026-04-22 18:31 37.50927 -77.32865 169 ft 18 kts 225°
2026-04-22 18:31 37.50830 -77.32911 172 ft 13 kts 193°
2026-04-22 18:31 37.50754 -77.32933 172 ft 10 kts 195°
2026-04-22 18:32 37.50686 -77.32956 171 ft 10 kts 193°
2026-04-22 18:32 37.50655 -77.33016 171 ft 8 kts 283°
2026-04-22 18:32 37.50663 -77.33055 171 ft 0 kts 285°